DLL YLMQ-YSTW

Flight info

Callsign DLL
Flight time 0h 54m
Altitude 4500
Route YCNK BAXT YSGT YSCO MUI WEK GST DUA
Aircraft DA50/L-S/N

Departure

Time 2026-05-01 09:48
Airport Lake Macquarie Airport (YLMQ)

Arrival

Time 2026-05-01 10:43
Airport Tamworth Airport (YSTW)
Time Latitude Longitude Altitude Speed Heading
2026-05-01 09:40 -33.06639 151.64934 48 ft 0 kts 128°
2026-05-01 09:44 -33.06641 151.64948 49 ft 2 kts 71°
2026-05-01 09:45 -33.06611 151.64998 49 ft 10 kts 51°
2026-05-01 09:45 -33.06546 151.64989 49 ft 16 kts 261°
2026-05-01 09:45 -33.06574 151.64773 49 ft 35 kts 262°
2026-05-01 09:46 -33.06610 151.64460 49 ft 37 kts 262°
2026-05-01 09:46 -33.06639 151.64238 49 ft 18 kts 250°
2026-05-01 09:46 -33.06646 151.64184 49 ft 4 kts 47°
2026-05-01 09:46 -33.06642 151.64193 49 ft 0 kts 78°
2026-05-01 09:47 -33.06630 151.64307 49 ft 30 kts 81°
2026-05-01 09:47 -33.06588 151.64662 49 ft 59 kts 79°
2026-05-01 09:47 -33.06577 151.65192 151 ft 63 kts 80°
2026-05-01 09:48 -33.06561 151.65692 271 ft 59 kts 79°
2026-05-01 09:48 -33.06480 151.66198 384 ft 64 kts 53°
2026-05-01 09:48 -33.05969 151.66371 435 ft 95 kts 354°
2026-05-01 09:48 -33.05385 151.65988 750 ft 94 kts 324°
2026-05-01 09:49 -33.04849 151.65478 939 ft 101 kts 331°
2026-05-01 09:49 -33.04279 151.64994 1184 ft 104 kts 326°
2026-05-01 09:49 -33.03742 151.64471 1463 ft 101 kts 330°
2026-05-01 09:49 -33.03171 151.64051 1738 ft 96 kts 341°
2026-05-01 09:50 -33.02557 151.63625 1871 ft 110 kts 336°
2026-05-01 09:50 -33.01825 151.63306 2001 ft 115 kts 356°
2026-05-01 09:50 -33.00993 151.63161 2107 ft 124 kts 354°
2026-05-01 09:50 -33.00143 151.62876 2266 ft 131 kts 343°
2026-05-01 09:51 -32.99289 151.62543 2450 ft 129 kts 349°
2026-05-01 09:51 -32.98417 151.62237 2603 ft 132 kts 348°
2026-05-01 09:51 -32.97545 151.61926 2737 ft 135 kts 353°
2026-05-01 09:51 -32.96591 151.61803 2843 ft 136 kts 356°
2026-05-01 09:52 -32.95653 151.61728 2952 ft 139 kts
2026-05-01 09:52 -32.94687 151.61800 2987 ft 141 kts 14°
2026-05-01 09:52 -32.93742 151.62037 3149 ft 139 kts
2026-05-01 09:52 -32.92788 151.61887 3342 ft 139 kts 345°
2026-05-01 09:53 -32.91822 151.61554 3300 ft 151 kts 346°
2026-05-01 09:53 -32.90800 151.61185 3275 ft 155 kts 344°
2026-05-01 09:53 -32.89799 151.60719 3364 ft 151 kts 339°
2026-05-01 09:53 -32.88885 151.60126 3387 ft 155 kts 326°
2026-05-01 09:54 -32.88237 151.59084 3444 ft 160 kts 300°
2026-05-01 09:54 -32.87681 151.57952 3471 ft 159 kts 310°
2026-05-01 09:54 -32.87034 151.56880 3432 ft 164 kts 308°
2026-05-01 09:54 -32.86305 151.55779 3266 ft 172 kts 312°
2026-05-01 09:55 -32.85562 151.54701 3351 ft 163 kts 314°
2026-05-01 09:55 -32.84764 151.53718 3297 ft 165 kts 317°
2026-05-01 09:55 -32.84000 151.52677 3180 ft 173 kts 308°
2026-05-01 09:55 -32.83320 151.51551 3255 ft 165 kts 309°
2026-05-01 09:56 -32.82648 151.50460 3158 ft 164 kts 309°
2026-05-01 09:56 -32.81995 151.49361 3145 ft 160 kts 306°
2026-05-01 09:56 -32.81423 151.48234 3087 ft 163 kts 294°
2026-05-01 09:56 -32.81528 151.46893 2899 ft 176 kts 239°
2026-05-01 09:57 -32.81989 151.45552 2774 ft 176 kts 251°
2026-05-01 09:57 -32.82280 151.44168 2751 ft 172 kts 258°
2026-05-01 09:57 -32.82489 151.42776 2625 ft 174 kts 261°
2026-05-01 09:57 -32.82574 151.41347 2496 ft 175 kts 267°
2026-05-01 09:58 -32.82698 151.39948 2481 ft 171 kts 260°
2026-05-01 09:58 -32.82983 151.38562 2306 ft 177 kts 250°
2026-05-01 09:58 -32.83309 151.37183 2184 ft 176 kts 273°
2026-05-01 09:58 -32.82590 151.36052 1716 ft 181 kts 329°
2026-05-01 09:59 -32.81648 151.35199 1818 ft 162 kts 330°
2026-05-01 09:59 -32.80658 151.34653 1791 ft 153 kts 344°
2026-05-01 09:59 -32.79646 151.34411 1745 ft 146 kts
2026-05-01 09:59 -32.78635 151.34229 1717 ft 146 kts 352°
2026-05-01 10:00 -32.77611 151.34079 1500 ft 153 kts
2026-05-01 10:00 -32.76554 151.34194 1425 ft 149 kts 12°
2026-05-01 10:00 -32.75575 151.34419 1493 ft 139 kts 14°
2026-05-01 10:00 -32.74630 151.34621 1530 ft 136 kts 13°
2026-05-01 10:01 -32.73702 151.34793 1535 ft 135 kts
2026-05-01 10:01 -32.72773 151.34881 1561 ft 134 kts
2026-05-01 10:01 -32.71810 151.34919 1479 ft 138 kts
2026-05-01 10:01 -32.70851 151.35010 1408 ft 141 kts
2026-05-01 10:02 -32.69874 151.35120 1376 ft 141 kts
2026-05-01 10:02 -32.68906 151.35210 1385 ft 138 kts
2026-05-01 10:02 -32.67963 151.35290 1416 ft 135 kts
2026-05-01 10:02 -32.67052 151.35050 1497 ft 138 kts 333°
2026-05-01 10:03 -32.66390 151.34186 1456 ft 149 kts 302°
2026-05-01 10:03 -32.65939 151.33091 1487 ft 147 kts 295°
2026-05-01 10:03 -32.65544 151.31990 1524 ft 147 kts 291°
2026-05-01 10:03 -32.65268 151.30802 1505 ft 150 kts 281°
2026-05-01 10:04 -32.65060 151.29599 1566 ft 146 kts 287°
2026-05-01 10:04 -32.64732 151.28491 1613 ft 144 kts 295°
2026-05-01 10:04 -32.64286 151.27413 1606 ft 145 kts 300°
2026-05-01 10:04 -32.63830 151.26343 1678 ft 142 kts 302°
2026-05-01 10:05 -32.63310 151.25367 1722 ft 141 kts 306°
2026-05-01 10:05 -32.62879 151.24311 1725 ft 147 kts 286°
2026-05-01 10:05 -32.62642 151.23110 1652 ft 154 kts 284°
2026-05-01 10:05 -32.62425 151.21880 1727 ft 148 kts 280°
2026-05-01 10:06 -32.62139 151.20808 1864 ft 139 kts 307°
2026-05-01 10:06 -32.61559 151.19858 1950 ft 140 kts 310°
2026-05-01 10:06 -32.61002 151.18948 2120 ft 136 kts 308°
2026-05-01 10:06 -32.60416 151.18041 2161 ft 141 kts 314°
2026-05-01 10:07 -32.59665 151.17296 2198 ft 140 kts 337°
2026-05-01 10:07 -32.58739 151.16952 2255 ft 137 kts 350°
2026-05-01 10:07 -32.57815 151.16582 2175 ft 148 kts 346°
2026-05-01 10:07 -32.56867 151.16155 2304 ft 143 kts 337°
2026-05-01 10:08 -32.55116 151.15093 2435 ft 144 kts 335°
2026-05-01 10:08 -32.54222 151.14460 2335 ft 155 kts 329°
2026-05-01 10:08 -32.53423 151.13729 2681 ft 133 kts 321°
2026-05-01 10:09 -32.52645 151.13032 2570 ft 145 kts 336°
2026-05-01 10:09 -32.51706 151.12531 2513 ft 151 kts 338°
2026-05-01 10:09 -32.50709 151.12001 2328 ft 161 kts 339°
2026-05-01 10:09 -32.49745 151.11302 2294 ft 163 kts 326°
2026-05-01 10:10 -32.48907 151.10386 2224 ft 167 kts 316°
2026-05-01 10:10 -32.48124 151.09383 2258 ft 161 kts 314°
2026-05-01 10:10 -32.46571 151.07745 2475 ft 147 kts 326°
2026-05-01 10:11 -32.45665 151.07183 2430 ft 148 kts 346°
2026-05-01 10:11 -32.44672 151.06763 2256 ft 161 kts 339°
2026-05-01 10:11 -32.43655 151.06217 2255 ft 158 kts 338°
2026-05-01 10:11 -32.42696 151.05622 2266 ft 156 kts 333°
2026-05-01 10:12 -32.41769 151.04960 2286 ft 154 kts 331°
2026-05-01 10:12 -32.41182 151.04513 2393 ft 148 kts 329°
2026-05-01 10:12 -32.39361 151.02529 2352 ft 159 kts 309°
2026-05-01 10:13 -32.38713 151.01492 2380 ft 158 kts 309°
2026-05-01 10:13 -32.38105 151.00409 2449 ft 154 kts 305°
2026-05-01 10:13 -32.37434 150.99527 2603 ft 144 kts 322°
2026-05-01 10:14 -32.35967 150.97661 2354 ft 167 kts 310°
2026-05-01 10:14 -32.35305 150.96532 2333 ft 166 kts 306°
2026-05-01 10:14 -32.34586 150.95477 2304 ft 163 kts 315°
2026-05-01 10:14 -32.33741 150.94547 2187 ft 166 kts 322°
2026-05-01 10:15 -32.32881 150.93743 2388 ft 149 kts 324°
2026-05-01 10:15 -32.32081 150.92983 2459 ft 147 kts 324°
2026-05-01 10:15 -32.31243 150.92232 2420 ft 151 kts 328°
2026-05-01 10:15 -32.30338 150.91564 2399 ft 152 kts 333°
2026-05-01 10:16 -32.29413 150.90987 2415 ft 151 kts 337°
2026-05-01 10:16 -32.28459 150.90486 2409 ft 151 kts 342°
2026-05-01 10:16 -32.26635 150.89366 2519 ft 151 kts 320°
2026-05-01 10:17 -32.25881 150.88665 2814 ft 129 kts 338°
2026-05-01 10:17 -32.24020 150.88216 2762 ft 142 kts 354°
2026-05-01 10:17 -32.23034 150.88015 2762 ft 145 kts 353°
2026-05-01 10:18 -32.21040 150.87565 2771 ft 148 kts 352°
2026-05-01 10:18 -32.20030 150.87321 2771 ft 149 kts 351°
2026-05-01 10:18 -32.19006 150.87073 2773 ft 149 kts 351°
2026-05-01 10:19 -32.17996 150.86819 2772 ft 150 kts 351°
2026-05-01 10:19 -32.16970 150.86560 2771 ft 150 kts 351°
2026-05-01 10:19 -32.15952 150.86302 2775 ft 150 kts 351°
2026-05-01 10:20 -32.13917 150.85786 2770 ft 150 kts 351°
2026-05-01 10:20 -32.12890 150.85525 2770 ft 150 kts 351°
2026-05-01 10:20 -32.11877 150.85269 2770 ft 150 kts 351°
2026-05-01 10:20 -32.10849 150.85007 2770 ft 150 kts 350°
2026-05-01 10:21 -32.09838 150.84748 2766 ft 150 kts 351°
2026-05-01 10:21 -32.07808 150.84229 2766 ft 149 kts 350°
2026-05-01 10:21 -32.06786 150.83968 2767 ft 149 kts 350°
2026-05-01 10:22 -32.04756 150.83449 2764 ft 149 kts 350°
2026-05-01 10:22 -32.02719 150.83186 2767 ft 147 kts
2026-05-01 10:23 -32.01691 150.83186 2769 ft 147 kts
2026-05-01 10:23 -31.99640 150.83197 2769 ft 147 kts
2026-05-01 10:23 -31.98614 150.83200 2765 ft 147 kts
2026-05-01 10:24 -31.96568 150.83208 2764 ft 147 kts
2026-05-01 10:24 -31.94530 150.83220 2778 ft 147 kts
2026-05-01 10:25 -31.92473 150.83240 2783 ft 146 kts
2026-05-01 10:25 -31.90751 150.84255 2935 ft 133 kts 16°
2026-05-01 10:26 -31.89917 150.84638 3119 ft 124 kts 26°
2026-05-01 10:26 -31.89153 150.85029 3325 ft 118 kts 20°
2026-05-01 10:26 -31.87498 150.85550 3464 ft 125 kts 22°
2026-05-01 10:27 -31.85993 150.86347 3814 ft 114 kts 26°
2026-05-01 10:27 -31.84475 150.86985 4146 ft 110 kts 13°
2026-05-01 10:28 -31.83714 150.87134 4252 ft 114 kts 10°
2026-05-01 10:28 -31.82052 150.87170 4408 ft 125 kts 358°
2026-05-01 10:28 -31.81170 150.86993 4466 ft 130 kts 351°
2026-05-01 10:29 -31.79533 150.86467 4640 ft 139 kts 338°
2026-05-01 10:29 -31.78499 150.85593 4536 ft 137 kts 321°
2026-05-01 10:30 -31.75883 150.82551 4242 ft 126 kts 331°
2026-05-01 10:30 -31.72715 150.81014 3634 ft 122 kts
2026-05-01 10:31 -31.69728 150.79477 3418 ft 123 kts 327°
2026-05-01 10:31 -31.67055 150.77517 3519 ft 119 kts 341°
2026-05-01 10:32 -31.64149 150.76023 4416 ft 108 kts 343°
2026-05-01 10:32 -31.62730 150.75236 4778 ft 110 kts 339°
2026-05-01 10:32 -31.60194 150.74244 5844 ft 93 kts 360°
2026-05-01 10:33 -31.57553 150.74014 6611 ft 98 kts 351°
2026-05-01 10:33 -31.54449 150.73275 6869 ft 119 kts 352°
2026-05-01 10:34 -31.52729 150.72772 6765 ft 137 kts 343°
2026-05-01 10:34 -31.50855 150.71865 6575 ft 149 kts 339°
2026-05-01 10:34 -31.48881 150.70838 6259 ft 160 kts 338°
2026-05-01 10:35 -31.44951 150.68873 6501 ft 146 kts 342°
2026-05-01 10:35 -31.42996 150.68140 6309 ft 152 kts 344°
2026-05-01 10:35 -31.41021 150.67353 6334 ft 150 kts 342°
2026-05-01 10:35 -31.39065 150.66513 6330 ft 150 kts 339°
2026-05-01 10:36 -31.35380 150.64068 6257 ft 149 kts 348°
2026-05-01 10:36 -31.33353 150.64510 5779 ft 157 kts 30°
2026-05-01 10:36 -31.31570 150.66104 5307 ft 163 kts 40°
2026-05-01 10:37 -31.29895 150.67906 4825 ft 163 kts 40°
2026-05-01 10:37 -31.25852 150.69168 4027 ft 153 kts 356°
2026-05-01 10:37 -31.23755 150.68800 3616 ft 149 kts 357°
2026-05-01 10:38 -31.21737 150.68658 3096 ft 142 kts 12°
2026-05-01 10:38 -31.20109 150.69707 2567 ft 133 kts 58°
2026-05-01 10:38 -31.19429 150.71590 2621 ft 115 kts 65°
2026-05-01 10:38 -31.18721 150.73015 2976 ft 94 kts 52°
2026-05-01 10:39 -31.17825 150.74104 3127 ft 90 kts 48°
2026-05-01 10:39 -31.16907 150.75045 3281 ft 87 kts 41°
2026-05-01 10:39 -31.15916 150.75884 3269 ft 91 kts 47°
2026-05-01 10:39 -31.14944 150.76943 3148 ft 98 kts 44°
2026-05-01 10:40 -31.13911 150.77988 3168 ft 98 kts 48°
2026-05-01 10:40 -31.13147 150.79233 3331 ft 90 kts 61°
2026-05-01 10:40 -31.12644 150.80293 3360 ft 91 kts 52°
2026-05-01 10:40 -31.12120 150.80709 3148 ft 97 kts 28°
2026-05-01 10:41 -31.11446 150.80984 2812 ft 104 kts 22°
2026-05-01 10:41 -31.10723 150.81077 2391 ft 103 kts
2026-05-01 10:41 -31.09528 150.81219 1900 ft 77 kts 38°
2026-05-01 10:42 -31.09160 150.81604 1945 ft 68 kts 51°
2026-05-01 10:42 -31.08916 150.82087 1906 ft 70 kts 77°
2026-05-01 10:42 -31.08776 150.82625 1861 ft 73 kts 71°
2026-05-01 10:42 -31.08606 150.83163 1748 ft 68 kts 71°
2026-05-01 10:43 -31.08493 150.83693 1596 ft 65 kts 76°
2026-05-01 10:43 -31.08338 150.84198 1410 ft 66 kts 74°
2026-05-01 10:43 -31.08229 150.84638 1373 ft 41 kts 78°
2026-05-01 10:43 -31.08216 150.84786 1375 ft 13 kts 122°
2026-05-01 10:44 -31.08301 150.84763 1377 ft 20 kts 214°
2026-05-01 10:44 -31.08393 150.84669 1380 ft 17 kts 245°
2026-05-01 10:44 -31.08476 150.84619 1381 ft 8 kts 109°